Location: Unspecified
(0.0000°N, 0.0000°E)
Time: 19:31:06
(UTC+00:00)

Vanguard 1 - Pass Details

Date: 13 December 2017
Orbit: 650 x 3833 km, 34.3° (Epoch: 17 June)

Event Time Altitude Azimuth Distance (km) Brightness Sun altitude
Rises 18:25:47 0° 296° (WNW) 3,254 13.4 -7.2°
Reaches altitude 10° 18:28:27 10° 290° (WNW) 2,157 12.6 -7.8°
Maximum altitude 18:32:52 45° 216° (SW) 880 10.4 -8.8°
Drops below altitude 10° 18:37:16 10° 142° (SE) 2,150 11.7 -9.8°
Sets 18:39:56 0° 136° (SE) 3,243 12.5 -10.4°
